Location: Kergonan
(48.2337°N, 4.5518°W)
Time: 13:26:31
(UTC+00:00)

Cosmos 1953 - Pass Details

Date: 18 January 2020
Orbit: 539 x 558 km, 82.5° (Epoch: 20 February)

Event Time Altitude Azimuth Distance (km) Brightness Sun altitude
Rises 06:54:49 0° 217° (SW) 2,723 5.7 -11.0°
Reaches altitude 10° 06:57:14 10° 230° (SW) 1,837 4.7 -10.6°
Maximum altitude 07:00:41 26° 289° (WNW) 1,109 3.3 -10.1°
Drops below altitude 10° 07:04:09 10° 347° (NNW) 1,856 4.7 -9.6°
Sets 07:06:37 0° 0° (N) 2,758 5.7 -9.2°
